• In Uzbekistan
  • List of Countries
  • For 7 days
  • Water Temperature
  • Weather Map
  • Weather Widgets
  • user-avatar
    Login

    Hourly Weather Dalat

    Today, 19 September, Thursday

    Time Temperature Precipitation Wind Pressure Humidity
    00:00 +20°C° 2.9 mm 1 mps 652 mmHg 98%
    01:00 +19°C° 0 mm 1 mps 652 mmHg 97%
    02:00 +19°C° 0.3 mm 1 mps 651 mmHg 97%
    03:00 +19°C° 0.3 mm 1 mps 651 mmHg 98%
    04:00 +19°C° 0.3 mm 1 mps 651 mmHg 98%
    05:00 +19°C° 0 mm 1 mps 651 mmHg 97%
    06:00 +20°C° 0 mm 1 mps 652 mmHg 97%
    07:00 +20°C° 0 mm 1 mps 652 mmHg 97%
    08:00 +21°C° 0.2 mm 1 mps 653 mmHg 94%
    09:00 +21°C° 0.2 mm 1 mps 653 mmHg 91%
    10:00 +22°C° 0.2 mm 1 mps 653 mmHg 88%
    11:00 +23°C° 0.8 mm 1 mps 653 mmHg 88%
    12:00 +23°C° 0.8 mm 2 mps 653 mmHg 89%
    13:00 +24°C° 0 mm 2 mps 652 mmHg 88%
    14:00 +23°C° 1.2 mm 2 mps 652 mmHg 90%
    15:00 +21°C° 1.2 mm 2 mps 652 mmHg 92%
    16:00 +22°C° 1.2 mm 1 mps 651 mmHg 94%
    17:00 +21°C° 0.1 mm 1 mps 651 mmHg 95%
    18:00 +20°C° 0.1 mm 1 mps 651 mmHg 95%
    19:00 +19°C° 0 mm 1 mps 652 mmHg 96%
    20:00 +19°C° 0 mm 1 mps 652 mmHg 96%
    21:00 +19°C° 0 mm 1 mps 652 mmHg 96%
    22:00 +19°C° 0 mm 1 mps 653 mmHg 95%
    23:00 +19°C° 0 mm 1 mps 652 mmHg 95%

    Tomorrow, 20 September, Friday

    Time Temperature Precipitation Wind Pressure Humidity
    00:00 +18°C° 0 mm 1 mps 652 mmHg 96%
    01:00 +18°C° 0 mm 1 mps 651 mmHg 96%
    02:00 +18°C° 0 mm 1 mps 651 mmHg 96%
    03:00 +18°C° 0 mm 1 mps 651 mmHg 96%
    04:00 +18°C° 0 mm 1 mps 651 mmHg 95%
    05:00 +17°C° 0 mm 0 mps 651 mmHg 93%
    06:00 +18°C° 0 mm 0 mps 652 mmHg 92%
    07:00 +18°C° 0 mm 0 mps 652 mmHg 90%
    08:00 +22°C° 0 mm 1 mps 653 mmHg 82%
    09:00 +24°C° 0 mm 1 mps 653 mmHg 74%
    10:00 +25°C° 0 mm 2 mps 654 mmHg 67%
    11:00 +25°C° 1.1 mm 2 mps 653 mmHg 74%
    12:00 +24°C° 1.1 mm 2 mps 652 mmHg 82%
    13:00 +24°C° 1.1 mm 2 mps 652 mmHg 89%
    14:00 +23°C° 1.8 mm 2 mps 651 mmHg 90%
    15:00 +23°C° 1.8 mm 1 mps 651 mmHg 91%
    16:00 +23°C° 1.8 mm 1 mps 651 mmHg 92%
    17:00 +22°C° 0.7 mm 1 mps 651 mmHg 94%
    18:00 +21°C° 0.7 mm 1 mps 651 mmHg 96%
    19:00 +18°C° 0.7 mm 0 mps 650 mmHg 97%
    20:00 +18°C° 0.5 mm 0 mps 651 mmHg 97%
    21:00 +18°C° 0.5 mm 0 mps 652 mmHg 97%
    22:00 +18°C° 0.5 mm 0 mps 652 mmHg 97%
    23:00 +17°C° 0.3 mm 0 mps 652 mmHg 97%

    Day after tomorrow, 21 September, Saturday

    Time Temperature Precipitation Wind Pressure Humidity
    00:00 +19°C° 0.3 mm 1 mps 651 mmHg 97%
    01:00 +19°C° 0.3 mm 1 mps 651 mmHg 98%
    02:00 +19°C° 1.3 mm 1 mps 651 mmHg 98%
    03:00 +19°C° 1.3 mm 1 mps 651 mmHg 98%
    04:00 +19°C° 1.3 mm 1 mps 651 mmHg 98%
    05:00 +19°C° 1.5 mm 1 mps 651 mmHg 98%
    06:00 +17°C° 1.5 mm 0 mps 651 mmHg 98%
    07:00 +17°C° 1.5 mm 0 mps 651 mmHg 98%
    08:00 +18°C° 0.6 mm 0 mps 652 mmHg 98%
    09:00 +18°C° 0.6 mm 0 mps 652 mmHg 97%
    10:00 +18°C° 0.6 mm 0 mps 652 mmHg 97%
    11:00 +20°C° 1.7 mm 1 mps 652 mmHg 97%
    12:00 +20°C° 1.7 mm 1 mps 651 mmHg 97%
    13:00 +20°C° 1.7 mm 1 mps 651 mmHg 97%
    14:00 +18°C° 0.4 mm 0 mps 651 mmHg 96%
    15:00 +18°C° 0.4 mm 0 mps 651 mmHg 96%
    16:00 +18°C° 0.4 mm 0 mps 651 mmHg 95%
    17:00 +18°C° 0.1 mm 0 mps 651 mmHg 96%
    18:00 +17°C° 0.1 mm 0 mps 651 mmHg 96%
    19:00 +17°C° 0.1 mm 0 mps 651 mmHg 97%
    20:00 +17°C° 0.1 mm 0 mps 652 mmHg 96%
    21:00 +17°C° 0.1 mm 0 mps 652 mmHg 96%
    22:00 +17°C° 0.1 mm 0 mps 653 mmHg 95%
    23:00 +17°C° 0.2 mm 0 mps 652 mmHg 95%

    22 September, Sunday

    Time Temperature Precipitation Wind Pressure Humidity
    00:00 +17°C° 0.2 mm 0 mps 652 mmHg 95%
    01:00 +17°C° 0.2 mm 0 mps 652 mmHg 96%
    02:00 +17°C° 0.2 mm 0 mps 652 mmHg 96%
    03:00 +16°C° 0.2 mm 0 mps 652 mmHg 96%
    04:00 +16°C° 0.2 mm 0 mps 651 mmHg 96%
    05:00 +17°C° 0.2 mm 0 mps 652 mmHg 96%
    06:00 +17°C° 0.2 mm 0 mps 652 mmHg 96%
    07:00 +18°C° 0.2 mm 0 mps 653 mmHg 96%
    08:00 +18°C° 0.8 mm 0 mps 653 mmHg 95%
    09:00 +19°C° 0.8 mm 0 mps 654 mmHg 94%
    10:00 +20°C° 0.8 mm 0 mps 654 mmHg 93%
    11:00 +19°C° 1.6 mm 0 mps 653 mmHg 95%
    12:00 +19°C° 1.6 mm 0 mps 653 mmHg 96%
    13:00 +18°C° 1.6 mm 0 mps 652 mmHg 97%
    14:00 +18°C° 2.7 mm 0 mps 652 mmHg 97%
    15:00 +18°C° 2.7 mm 0 mps 652 mmHg 98%
    16:00 +20°C° 2.7 mm 1 mps 652 mmHg 98%
    17:00 +17°C° 0.5 mm 0 mps 652 mmHg 98%
    18:00 +17°C° 0.5 mm 0 mps 653 mmHg 98%
    19:00 +17°C° 0.5 mm 0 mps 653 mmHg 98%
    20:00 +17°C° 0.2 mm 0 mps 653 mmHg 98%
    21:00 +17°C° 0.2 mm 0 mps 653 mmHg 97%
    22:00 +17°C° 0.2 mm 0 mps 654 mmHg 97%
    23:00 +17°C° 0.1 mm 0 mps 653 mmHg 97%

    23 September, Monday

    Time Temperature Precipitation Wind Pressure Humidity
    00:00 +16°C° 0.1 mm 0 mps 653 mmHg 97%
    01:00 +16°C° 0.1 mm 0 mps 653 mmHg 96%
    02:00 +16°C° 0 mm 0 mps 653 mmHg 96%
    03:00 +16°C° 0 mm 0 mps 653 mmHg 96%
    04:00 +16°C° 0 mm 0 mps 652 mmHg 95%
    05:00 +17°C° 0 mm 0 mps 653 mmHg 94%
    06:00 +17°C° 0 mm 0 mps 654 mmHg 92%
    07:00 +18°C° 0 mm 0 mps 654 mmHg 90%
    08:00 +22°C° 0 mm 1 mps 655 mmHg 77%
    09:00 +24°C° 0 mm 1 mps 656 mmHg 65%
    10:00 +26°C° 0 mm 1 mps 656 mmHg 52%
    11:00 +26°C° 0.1 mm 1 mps 656 mmHg 54%
    12:00 +26°C° 0.1 mm 1 mps 655 mmHg 56%
    13:00 +26°C° 0.1 mm 1 mps 654 mmHg 58%
    14:00 +25°C° 0.8 mm 1 mps 654 mmHg 68%
    15:00 +24°C° 0.8 mm 1 mps 653 mmHg 79%
    16:00 +23°C° 0.8 mm 1 mps 653 mmHg 89%
    17:00 +21°C° 0.6 mm 1 mps 653 mmHg 92%
    18:00 +20°C° 0.6 mm 1 mps 653 mmHg 95%
    19:00 +19°C° 0.6 mm 1 mps 653 mmHg 98%
    20:00 +19°C° 0.1 mm 1 mps 653 mmHg 97%
    21:00 +18°C° 0.1 mm 1 mps 653 mmHg 97%
    22:00 +18°C° 0.1 mm 1 mps 654 mmHg 96%
    23:00 +18°C° 0 mm 1 mps 653 mmHg 97%

    24 September, Tuesday

    Time Temperature Precipitation Wind Pressure Humidity
    00:00 +18°C° 0 mm 1 mps 653 mmHg 97%
    01:00 +18°C° 0 mm 1 mps 652 mmHg 97%
    02:00 +16°C° 0 mm 1 mps 652 mmHg 97%
    03:00 +16°C° 0 mm 1 mps 652 mmHg 97%
    04:00 +16°C° 0 mm 1 mps 652 mmHg 97%
    05:00 +18°C° 0 mm 1 mps 652 mmHg 95%
    06:00 +19°C° 0 mm 1 mps 653 mmHg 93%
    07:00 +19°C° 0 mm 1 mps 654 mmHg 92%
    08:00 +22°C° 0 mm 1 mps 654 mmHg 81%
    09:00 +24°C° 0 mm 1 mps 655 mmHg 69%
    10:00 +26°C° 0 mm 2 mps 656 mmHg 58%
    11:00 +26°C° 0.3 mm 2 mps 655 mmHg 61%
    12:00 +26°C° 0.3 mm 2 mps 655 mmHg 64%
    13:00 +26°C° 0.3 mm 2 mps 654 mmHg 67%
    14:00 +25°C° 1.4 mm 1 mps 654 mmHg 74%
    15:00 +24°C° 1.4 mm 1 mps 653 mmHg 81%
    16:00 +23°C° 1.4 mm 1 mps 653 mmHg 88%
    17:00 +22°C° 0.3 mm 1 mps 653 mmHg 91%
    18:00 +21°C° 0.3 mm 1 mps 653 mmHg 94%
    19:00 +19°C° 0.3 mm 1 mps 653 mmHg 98%
    20:00 +19°C° 0 mm 1 mps 653 mmHg 98%
    21:00 +19°C° 0 mm 1 mps 653 mmHg 97%
    22:00 +18°C° 0 mm 1 mps 653 mmHg 97%
    23:00 +18°C° 0 mm 1 mps 653 mmHg 97%
    Show more